Location: Caltech
(34.1382°N, 118.1253°W)
Time: 21:06:58
(UTC-08:00)

Cosmos 2219 - Visible Passes

Search period start: 23 November 2014 00:00
Search period end: 03 December 2014 00:00
Orbit: 834 x 860 km, 71.1° (Epoch: 23 November)

Date Brightness Start Highest point End Pass type
(mag) Time Alt. Az. Time Alt. Az. Time Alt. Az.
23 Nov 6.0 04:35:46 10° NE 04:37:11 11° NE 04:38:37 10° ENE visible
24 Nov 6.0 04:22:38 10° NE 04:23:49 11° NE 04:24:59 10° ENE visible
24 Nov 3.4 06:03:04 10° NNW 06:08:48 83° ENE 06:14:31 10° SSE visible
25 Nov 6.0 04:09:35 10° NE 04:10:26 10° NE 04:11:18 10° ENE visible
25 Nov 3.4 05:49:43 10° NNW 05:55:27 82° ENE 06:01:10 10° SSE visible
25 Nov 5.1 18:54:37 10° S 18:55:42 16° SSE 18:55:42 16° SSE visible
26 Nov 6.1 03:56:46 10° NE 03:57:04 10° NE 03:57:21 10° NE visible
26 Nov 3.4 05:36:22 10° NNW 05:42:06 80° ENE 05:47:49 10° SSE visible
26 Nov 4.5 18:41:18 10° S 18:43:47 24° SSE 18:43:47 24° SSE visible
27 Nov 3.4 05:23:01 10° NNW 05:28:45 78° ENE 05:34:28 10° SSE visible
27 Nov 4.0 18:27:59 10° SSE 18:31:52 32° SE 18:31:52 32° SE visible
27 Nov 5.7 20:12:31 10° WSW 20:13:53 16° WSW 20:13:53 16° WSW visible
28 Nov 3.4 05:09:40 10° NNW 05:15:23 76° ENE 05:21:06 10° SSE visible
28 Nov 3.7 18:14:41 10° SSE 18:19:40 35° ESE 18:19:56 34° E visible
28 Nov 5.3 19:59:07 10° WSW 20:01:56 23° W 20:01:56 23° W visible
29 Nov 3.4 04:57:01 14° NNW 05:02:02 74° ENE 05:07:45 10° SSE visible
29 Nov 3.8 18:01:22 10° SSE 18:06:20 34° ESE 18:07:57 28° ENE visible
29 Nov 4.9 19:45:43 10° WSW 19:49:57 27° WNW 19:49:57 27° WNW visible
30 Nov 3.4 04:44:52 22° NNW 04:48:41 73° ENE 04:54:24 10° SSE visible
30 Nov 3.9 17:48:03 10° SSE 17:52:59 33° ESE 17:55:54 20° NE visible
30 Nov 4.8 19:32:19 10° WSW 19:37:05 28° WNW 19:37:54 27° NW visible
01 Dec 3.4 04:32:49 34° N 04:35:20 71° ENE 04:41:02 10° SSE visible
01 Dec 3.9 17:34:45 10° SSE 17:39:38 32° ESE 17:43:46 14° NE visible
01 Dec 4.8 19:18:55 10° WSW 19:23:43 29° WNW 19:25:46 23° NNW visible
02 Dec 3.4 04:20:49 54° N 04:21:59 69° ENE 04:27:41 10° SSE visible
02 Dec 4.9 06:03:02 10° WNW 06:05:26 13° W 06:07:50 10° WSW visible
02 Dec 4.0 17:21:26 10° SSE 17:26:18 31° ESE 17:31:11 10° NE visible
02 Dec 4.8 19:05:31 10° WSW 19:10:21 30° WNW 19:13:33 18° NNW visible
